CW6778 Weather Reports


time (UTC)temp
F
wind
direction
speed
knots
gust
knots
rain 1hr
in
rain 24hr
in
rain mn
in
humidity
%
barometer
mb
20260509064548 48 0 0.0 0.0 0.00 0.02 0.00 87 1010.4
20260509064030 48 0 0.0 0.0 0.00 0.02 0.00 87 1010.3
20260509063534 49 0 0.0 0.0 0.00 0.02 0.00 87 1010.5
20260509063048 49 0 0.0 0.0 0.00 0.02 0.00 87 1010.6
20260509062530 49 0 0.0 0.0 0.00 0.02 0.00 87 1010.6
20260509062029 49 0 0.0 0.0 0.00 0.02 0.00 87 1010.7
20260509061559 49 0 0.0 0.0 0.00 0.02 0.00 87 1010.7
20260509061032 49 0 0.0 2.6 0.00 0.02 0.00 87 1011.0
20260509060527 49 0 0.0 2.6 0.00 0.02 0.00 87 1011.0
20260509060051 49 52 1.7 2.6 0.00 0.02 0.00 86 1011.1
20260509055531 49 0 0.0 0.0 0.00 0.02 0.00 86 1011.0
20260509055030 49 0 0.0 0.0 0.00 0.02 0.00 86 1010.9
20260509054605 49 0 0.0 0.0 0.00 0.02 0.00 86 1011.0
20260509054027 49 0 0.0 0.0 0.00 0.02 0.00 86 1011.1
20260509053527 49 0 0.0 0.0 0.00 0.02 0.00 86 1011.2
20260509053051 49 0 0.0 0.0 0.00 0.02 0.00 86 1011.2
20260509052527 49 0 0.0 0.0 0.00 0.02 0.00 85 1011.3
20260509052031 49 0 0.0 0.0 0.00 0.02 0.00 85 1011.3
20260509051543 49 0 0.0 0.0 0.00 0.02 0.00 85 1011.5
20260509051030 49 0 0.0 0.0 0.00 0.02 0.00 85 1012.1
20260509050530 49 0 0.0 0.0 0.00 0.02 0.00 85 1012.2
20260509050054 49 0 0.0 0.0 0.00 0.02 0.00 85 1012.0
20260509045529 49 0 0.0 0.0 0.00 0.02 0.00 85 1012.1
20260509045027 50 0 0.0 0.0 0.00 0.02 0.00 85 1012.1
20260509044547 50 0 0.0 0.0 0.00 0.02 0.00 85 1012.1
20260509044030 50 0 0.0 0.0 0.00 0.02 0.00 85 1012.0
20260509043529 50 0 0.0 0.0 0.00 0.02 0.00 84 1011.9
20260509043054 50 0 0.0 0.0 0.00 0.02 0.00 84 1011.8
20260509042527 50 0 0.0 0.0 0.00 0.02 0.00 84 1011.9
20260509042034 50 0 0.0 0.0 0.00 0.02 0.00 84 1011.9
20260509041549 50 0 0.0 0.0 0.00 0.02 0.00 84 1011.7
20260509041030 50 0 0.0 0.0 0.00 0.02 0.00 84 1011.8
20260509040530 50 0 0.0 0.0 0.00 0.02 0.00 84 1012.0
20260509040052 50 0 0.0 0.0 0.00 0.02 0.00 83 1012.0
20260509035534 50 0 0.0 0.0 0.00 0.02 0.02 84 1012.1
20260509035029 50 0 0.0 0.0 0.00 0.02 0.02 84 1012.1
20260509034550 50 0 0.0 0.0 0.00 0.02 0.02 84 1012.2
20260509034031 50 0 0.0 0.0 0.00 0.02 0.02 83 1012.2
20260509033529 50 0 0.0 0.0 0.00 0.02 0.02 83 1012.1
20260509033050 50 0 0.0 0.0 0.00 0.02 0.02 83 1012.2
20260509032528 50 0 0.0 0.0 0.00 0.02 0.02 82 1012.1
20260509032028 50 0 0.0 0.0 0.00 0.02 0.02 81 1011.7
20260509031614 50 0 0.0 0.0 0.00 0.02 0.02 81 1011.7
20260509031027 50 0 0.0 0.0 0.00 0.02 0.02 81 1011.7
20260509030530 50 0 0.0 0.0 0.00 0.02 0.02 80 1011.8
20260509030045 50 0 0.0 0.0 0.00 0.02 0.02 80 1011.8
20260509025526 51 0 0.0 0.0 0.00 0.03 0.02 80 1011.8
20260509025027 51 0 0.0 0.0 0.00 0.03 0.02 80 1011.9
20260509024542 51 0 0.0 0.0 0.00 0.03 0.02 79 1011.8
20260509024027 51 0 0.0 0.0 0.00 0.03 0.02 79 1012.1
20260509023527 51 0 0.0 0.0 0.00 0.03 0.02 79 1012.0
20260509023050 51 0 0.0 0.0 0.00 0.03 0.02 79 1012.3
20260509022529 51 0 0.0 2.6 0.00 0.03 0.02 78 1012.2
20260509022031 52 0 0.0 2.6 0.00 0.03 0.02 78 1012.2
20260509021547 52 360 0.9 2.6 0.00 0.03 0.02 78 1012.2
20260509021029 52 360 0.0 1.7 0.00 0.03 0.02 77 1011.9
20260509020529 52 360 0.0 1.7 0.00 0.03 0.02 76 1011.9
20260509020044 52 0 0.0 2.6 0.00 0.03 0.02 76 1011.9
20260509015527 52 0 0.0 2.6 0.00 0.03 0.02 76 1011.8
20260509015028 52 0 0.0 2.6 0.00 0.03 0.02 74 1011.5
20260509014547 53 288 0.0 2.6 0.00 0.03 0.02 75 1011.2
20260509014030 53 0 0.0 2.6 0.00 0.03 0.02 75 1011.7
20260509013530 53 0 0.0 5.2 0.00 0.03 0.02 73 1012.0
20260509013047 53 360 0.0 5.2 0.00 0.03 0.02 73 1012.1
20260509012531 53 360 1.7 4.3 0.00 0.03 0.02 72 1012.0
20260509012031 53 329 1.7 4.3 0.00 0.03 0.02 71 1011.8
20260509011547 53 278 0.0 2.6 0.00 0.03 0.02 70 1011.8
20260509011031 54 0 0.9 2.6 0.00 0.03 0.02 69 1011.7
20260509010531 54 360 0.0 2.6 0.00 0.03 0.02 69 1011.3
20260509010050 54 0 0.0 1.7 0.00 0.03 0.02 68 1011.0
20260509005532 54 0 0.0 3.5 0.00 0.03 0.02 68 1011.0
20260509005031 54 0 0.0 10.4 0.00 0.03 0.02 67 1011.0
20260509004552 54 277 0.9 10.4 0.00 0.03 0.02 66 1011.0
20260509004030 54 360 0.9 11.3 0.00 0.03 0.02 66 1010.9
20260509003531 54 360 4.3 11.3 0.00 0.03 0.02 66 1010.9
20260509003047 54 286 5.2 11.3 0.00 0.03 0.02 66 1011.1
20260509002530 55 360 0.9 7.0 0.00 0.03 0.02 65 1011.1
20260509002030 55 360 1.7 9.6 0.00 0.03 0.02 64 1011.1
20260509001545 55 360 2.6 9.6 0.00 0.03 0.02 64 1011.0
20260509001030 55 360 1.7 10.4 0.00 0.03 0.02 65 1010.9
20260509000531 55 289 1.7 12.2 0.00 0.03 0.02 65 1011.0
20260508235531 55 257 2.6 13.9 0.00 0.03 0.02 65 1010.9
20260508235032 55 360 5.2 13.9 0.00 0.03 0.02 65 1010.8
20260508234548 55 286 7.0 13.9 0.00 0.03 0.02 64 1010.8
20260508234031 55 360 3.5 13.9 0.00 0.03 0.02 65 1010.6
20260508233530 55 360 6.1 13.9 0.00 0.03 0.02 65 1010.7
20260508233051 55 360 4.3 12.2 0.00 0.03 0.02 65 1010.8
20260508232530 55 360 5.2 12.2 0.00 0.03 0.02 65 1010.7
20260508232031 56 360 7.0 13.0 0.00 0.03 0.02 64 1010.8
20260508231550 56 282 7.8 18.2 0.00 0.03 0.02 64 1010.6
20260508231032 56 360 10.4 16.5 0.00 0.03 0.02 64 1010.6
20260508230531 56 282 6.1 13.9 0.00 0.03 0.02 65 1010.5
20260508230052 56 270 5.2 13.9 0.00 0.03 0.02 65 1010.4
20260508225530 56 279 7.8 13.9 0.00 0.03 0.02 64 1010.3
20260508225033 56 280 6.1 13.9 0.00 0.03 0.02 66 1010.3
20260508224554 56 265 7.0 13.9 0.00 0.03 0.02 66 1010.3
20260508224030 57 252 2.6 12.2 0.00 0.03 0.02 67 1010.2
20260508223531 57 360 4.3 12.2 0.00 0.03 0.02 67 1010.3
20260508223045 57 360 5.2 12.2 0.00 0.03 0.02 67 1010.3
20260508222532 57 250 7.0 14.8 0.00 0.03 0.02 66 1010.3
20260508222031 57 360 8.7 14.8 0.00 0.03 0.02 66 1010.4
20260508221549 57 360 3.5 14.8 0.00 0.03 0.02 68 1010.4
20260508221033 56 282 6.1 14.8 0.00 0.03 0.02 70 1010.4
20260508220534 56 279 2.6 11.3 0.00 0.03 0.02 72 1010.7
20260508220048 55 268 4.3 11.3 0.00 0.03 0.02 74 1010.6
20260508215529 55 360 1.7 9.6 0.00 0.03 0.02 75 1010.7
20260508215030 54 360 2.6 7.8 0.00 0.03 0.02 75 1010.8
20260508214606 54 0 3.5 7.8 0.00 0.03 0.02 75 1010.6
20260508214030 54 360 2.6 7.0 0.00 0.03 0.02 76 1010.8
20260508213529 54 360 1.7 3.5 0.01 0.03 0.02 76 1010.7
20260508213057 54 360 0.0 2.6 0.01 0.03 0.02 77 1010.6
20260508212529 53 0 0.9 2.6 0.02 0.03 0.02 76 1010.5
20260508212033 53 360 0.9 5.2 0.02 0.03 0.02 77 1010.6
20260508211549 53 360 1.7 7.0 0.02 0.03 0.02 77 1010.7
20260508211030 53 360 2.6 7.0 0.02 0.03 0.02 77 1010.7
20260508210530 53 360 0.9 8.7 0.02 0.03 0.02 78 1010.8
20260508210049 53 360 1.7 8.7 0.02 0.03 0.02 77 1010.8
20260508205530 53 286 2.6 10.4 0.02 0.03 0.02 77 1010.8
20260508205033 53 360 2.6 12.2 0.02 0.03 0.02 76 1010.8
20260508204551 53 360 6.1 13.9 0.02 0.03 0.02 74 1010.9
20260508204030 54 278 7.0 23.5 0.01 0.02 0.01 73 1011.1
20260508203529 55 360 8.7 23.5 0.01 0.02 0.01 70 1011.3
20260508203054 56 360 11.3 23.5 0.01 0.02 0.01 64 1011.3
20260508202532 57 360 9.6 22.6 0.00 0.01 0.00 59 1011.0
20260508202029 58 360 9.6 24.3 0.00 0.01 0.00 54 1010.6
20260508201601 58 360 13.9 23.5 0.00 0.01 0.00 51 1010.4
20260508201030 58 360 9.6 20.9 0.00 0.01 0.00 51 1010.4
20260508200529 58 282 7.8 20.9 0.00 0.01 0.00 51 1010.3
20260508195529 58 360 3.5 10.4 0.00 0.01 0.00 54 1010.5
20260508195029 58 360 0.0 3.5 0.00 0.01 0.00 57 1010.4
20260508194545 58 0 0.0 3.5 0.00 0.01 0.00 58 1010.7
20260508194029 58 0 1.7 3.5 0.00 0.01 0.00 57 1010.6
20260508193529 57 13 0.0 2.6 0.00 0.01 0.00 59 1010.6
20260508193054 57 12 0.0 3.5 0.00 0.01 0.00 58 1010.6
20260508192530 57 0 0.0 3.5 0.00 0.01 0.00 59 1010.7
20260508192029 57 0 0.0 2.6 0.00 0.01 0.00 57 1010.6
20260508191552 57 0 0.0 2.6 0.00 0.01 0.00 58 1010.7
20260508191033 57 0 0.0 2.6 0.00 0.01 0.00 57 1010.5
20260508190530 58 0 0.0 4.3 0.00 0.01 0.00 58 1010.4
20260508190057 58 0 0.9 5.2 0.00 0.01 0.00 59 1010.5
20260508185531 58 360 0.0 10.4 0.00 0.01 0.00 58 1010.5
20260508185030 58 360 3.5 10.4 0.00 0.01 0.00 59 1010.6
20260508184548 58 74 0.9 12.2 0.00 0.01 0.00 60 1010.6
20260508184030 58 58 0.9 14.8 0.00 0.01 0.00 58 1010.6
20260508183532 58 360 3.5 14.8 0.00 0.01 0.00 56 1011.1
20260508183053 59 360 7.0 14.8 0.00 0.01 0.00 50 1011.1
20260508182531 59 59 4.3 12.2 0.00 0.01 0.00 48 1010.7
20260508182030 59 360 6.1 13.9 0.00 0.01 0.00 48 1010.8
20260508181608 60 360 5.2 13.9 0.00 0.01 0.00 48 1010.8
20260508181030 60 360 4.3 18.2 0.00 0.01 0.00 50 1010.8
20260508180529 59 360 8.7 18.2 0.00 0.01 0.00 48 1011.0
20260508180104 60 275 5.2 18.2 0.00 0.01 0.00 48 1011.2
20260508175532 60 360 9.6 18.2 0.00 0.01 0.00 49 1011.3
20260508175031 60 360 6.1 13.9 0.00 0.01 0.00 50 1011.3
20260508174547 59 360 2.6 13.0 0.00 0.01 0.00 51 1011.3
20260508174032 59 360 4.3 13.9 0.00 0.01 0.00 54 1011.3
20260508173533 58 360 6.1 13.9 0.00 0.01 0.00 54 1011.5
20260508173050 57 360 4.3 11.3 0.00 0.01 0.00 58 1011.5
20260508172531 57 360 5.2 18.2 0.00 0.01 0.00 56 1011.5
20260508172035 57 360 7.0 18.2 0.00 0.01 0.00 54 1011.7
20260508171548 57 360 9.6 18.2 0.00 0.01 0.00 53 1011.8
20260508171031 57 360 8.7 14.8 0.00 0.01 0.00 51 1011.9
20260508170530 57 360 5.2 14.8 0.00 0.01 0.00 50 1011.9
20260508170049 57 355 1.7 16.5 0.00 0.01 0.00 49 1011.8
20260508165530 57 281 5.2 16.5 0.00 0.01 0.00 50 1011.7
20260508165033 58 360 4.3 13.0 0.00 0.01 0.00 50 1011.7
20260508164543 57 360 7.0 18.2 0.00 0.01 0.00 50 1011.7
20260508164030 57 360 9.6 19.1 0.00 0.01 0.00 49 1011.7
20260508163530 57 360 7.8 19.1 0.00 0.01 0.00 49 1011.8
20260508163051 58 360 10.4 18.2 0.00 0.01 0.00 48 1011.8
20260508162530 58 248 10.4 18.2 0.00 0.01 0.00 50 1011.7
20260508162032 58 360 5.2 17.4 0.00 0.01 0.00 50 1011.8
20260508161548 57 346 7.8 17.4 0.00 0.01 0.00 49 1011.9
20260508161031 57 360 11.3 17.4 0.00 0.01 0.00 48 1011.9
20260508160529 58 360 9.6 17.4 0.00 0.01 0.00 48 1011.9
20260508160047 58 360 9.6 15.6 0.00 0.01 0.00 51 1012.0
20260508155530 58 360 6.1 19.1 0.00 0.01 0.00 50 1012.0
20260508155030 58 360 6.1 19.1 0.00 0.01 0.00 51 1012.0
20260508154553 58 263 9.6 19.1 0.00 0.01 0.00 50 1011.9
20260508154029 58 360 5.2 20.0 0.00 0.01 0.00 49 1012.0
20260508153531 58 360 13.0 20.0 0.00 0.01 0.00 49 1011.9
20260508153042 58 360 10.4 20.9 0.00 0.01 0.00 48 1012.0
20260508152530 59 279 6.1 26.9 0.00 0.01 0.00 49 1012.0
20260508152030 59 360 11.3 26.9 0.00 0.01 0.00 49 1011.8
20260508151542 59 360 5.2 15.6 0.00 0.01 0.00 52 1011.7
20260508151030 59 360 6.1 18.2 0.00 0.01 0.00 52 1011.8
20260508150530 58 360 7.0 22.6 0.00 0.01 0.00 53 1011.6
20260508150046 58 360 9.6 22.6 0.00 0.01 0.00 51 1011.5
20260508145530 57 360 10.4 20.9 0.00 0.01 0.00 51 1011.5
20260508145030 57 360 8.7 21.7 0.00 0.01 0.00 51 1011.5
20260508144548 57 360 8.7 21.7 0.00 0.01 0.00 52 1011.5
20260508144030 57 360 8.7 21.7 0.00 0.01 0.00 51 1011.5
20260508143530 56 253 10.4 21.7 0.00 0.01 0.00 52 1011.7
20260508143047 56 360 9.6 20.0 0.00 0.01 0.00 53 1011.6
20260508142529 56 360 8.7 16.5 0.00 0.01 0.00 53 1011.9
20260508142029 55 248 6.1 17.4 0.00 0.01 0.00 56 1012.0
20260508141557 54 360 5.2 21.7 0.00 0.01 0.00 54 1012.0
20260508141032 54 360 9.6 21.7 0.00 0.01 0.00 55 1011.8
20260508140530 54 279 7.0 13.0 0.00 0.01 0.00 57 1012.1
20260508140052 53 360 3.5 13.9 0.00 0.01 0.00 58 1012.0
20260508135530 53 271 8.7 13.9 0.00 0.01 0.00 57 1012.0
20260508135028 52 244 3.5 13.0 0.00 0.01 0.00 59 1012.1
20260508134548 52 360 6.1 13.0 0.00 0.01 0.00 57 1011.9
20260508134029 52 360 6.1 13.0 0.00 0.01 0.00 57 1011.8
20260508133531 52 254 6.1 13.9 0.00 0.01 0.00 59 1011.9
20260508133049 51 266 5.2 13.9 0.00 0.01 0.00 60 1012.1
20260508132529 51 254 8.7 13.9 0.00 0.01 0.00 60 1012.1
20260508132029 51 360 6.1 13.0 0.00 0.01 0.00 61 1012.1
20260508131545 51 247 2.6 10.4 0.00 0.01 0.00 64 1012.2
20260508131030 50 275 1.7 10.4 0.00 0.01 0.00 67 1012.3
20260508130529 49 0 2.6 10.4 0.00 0.01 0.00 67 1012.2
20260508130047 49 360 2.6 9.6 0.00 0.01 0.00 67 1012.2
20260508125529 48 360 4.3 9.6 0.00 0.01 0.00 68 1012.2
20260508125030 47 240 4.3 9.6 0.00 0.01 0.00 71 1012.2
20260508124543 46 241 2.6 7.0 0.00 0.01 0.00 74 1012.2
20260508124031 45 0 1.7 4.3 0.00 0.01 0.00 77 1012.2
20260508123529 43 360 0.9 4.3 0.00 0.01 0.00 78 1012.2
20260508123047 43 0 0.9 4.3 0.00 0.01 0.00 79 1012.2
20260508122529 42 0 0.9 4.3 0.00 0.01 0.00 80 1012.3
20260508122029 42 0 1.7 4.3 0.00 0.01 0.00 81 1012.3
20260508121552 41 360 0.9 3.5 0.00 0.01 0.00 83 1012.3
20260508121029 41 252 1.7 3.5 0.00 0.01 0.00 83 1012.4
20260508120532 40 0 0.0 2.6 0.00 0.01 0.00 83 1012.3
20260508120057 40 360 0.9 2.6 0.00 0.01 0.00 83 1012.4
20260508115529 40 0 0.0 2.6 0.00 0.01 0.00 82 1012.3
20260508115029 40 360 0.0 3.5 0.00 0.01 0.00 83 1012.4
20260508114546 39 0 0.0 3.5 0.00 0.01 0.00 83 1012.4
20260508114031 39 0 1.7 3.5 0.00 0.01 0.00 84 1012.4
20260508113531 38 259 0.9 2.6 0.00 0.01 0.00 85 1012.4
20260508113044 38 0 0.0 2.6 0.00 0.01 0.00 86 1012.7
20260508112529 38 0 0.0 2.6 0.00 0.01 0.00 86 1012.8
20260508112029 38 360 0.9 3.5 0.00 0.01 0.00 87 1012.8
20260508111556 37 360 0.9 3.5 0.00 0.01 0.00 87 1012.8
20260508111032 37 360 1.7 3.5 0.00 0.01 0.00 87 1012.8
20260508110531 37 360 1.7 3.5 0.00 0.01 0.00 87 1012.8
20260508110058 36 360 1.7 3.5 0.00 0.01 0.00 87 1012.7
20260508105529 36 256 0.9 3.5 0.00 0.01 0.00 88 1012.6
20260508105030 36 249 0.9 3.5 0.00 0.01 0.00 88 1012.5
20260508104546 36 360 0.0 0.9 0.00 0.01 0.00 88 1012.5
20260508104030 36 0 0.0 0.0 0.00 0.01 0.00 88 1012.5
20260508103529 36 0 0.0 2.6 0.00 0.01 0.00 88 1012.3
20260508103055 36 0 0.0 3.5 0.00 0.01 0.00 88 1012.2
20260508102530 35 0 0.0 3.5 0.00 0.01 0.00 89 1012.2
20260508102029 35 251 1.7 3.5 0.00 0.01 0.00 89 1012.3
20260508101549 35 251 0.9 3.5 0.00 0.01 0.00 89 1012.3
20260508101029 35 0 0.0 2.6 0.00 0.01 0.00 89 1012.2
20260508100614 34 0 0.0 0.0 0.00 0.01 0.00 89 1012.2
20260508100048 34 0 0.0 0.0 0.00 0.01 0.00 88 1012.1
20260508095529 34 0 0.0 0.0 0.00 0.01 0.00 88 1012.1
20260508095030 34 0 0.0 0.0 0.00 0.01 0.00 88 1012.0
20260508094604 34 0 0.0 0.0 0.00 0.01 0.00 88 1012.1
20260508094031 34 0 0.0 0.0 0.00 0.01 0.00 88 1012.2
20260508093530 34 0 0.0 0.0 0.00 0.01 0.00 88 1012.0
20260508093046 35 0 0.0 3.5 0.00 0.01 0.00 88 1012.1
20260508092529 35 0 0.0 3.5 0.00 0.01 0.00 88 1012.1
20260508092029 35 250 1.7 3.5 0.00 0.01 0.00 88 1011.9
20260508091549 35 253 0.0 2.6 0.00 0.01 0.00 88 1012.0
20260508091029 35 0 0.0 0.0 0.00 0.01 0.00 88 1012.0
20260508090529 35 0 0.0 0.0 0.00 0.01 0.00 88 1012.0
20260508090053 35 0 0.0 0.0 0.00 0.01 0.00 88 1012.1
20260508085528 35 0 0.0 0.0 0.00 0.01 0.00 88 1012.0
20260508085028 35 0 0.0 0.0 0.00 0.01 0.00 88 1012.0
20260508084548 35 0 0.0 0.0 0.00 0.01 0.00 88 1012.0
20260508084030 35 0 0.0 0.0 0.00 0.01 0.00 88 1012.0
20260508083533 35 0 0.0 0.0 0.00 0.01 0.00 88 1012.0
20260508083107 36 0 0.0 2.6 0.00 0.01 0.00 87 1012.0
20260508082529 36 0 0.0 2.6 0.00 0.01 0.00 87 1012.0
20260508082030 36 253 0.9 3.5 0.00 0.01 0.00 87 1012.0
20260508081551 36 254 1.7 3.5 0.00 0.01 0.00 87 1012.1
20260508081033 36 360 0.0 2.6 0.00 0.01 0.00 87 1012.0
20260508080529 36 0 0.0 0.0 0.00 0.01 0.00 87 1011.9
20260508080049 36 0 0.0 2.6 0.00 0.01 0.00 87 1012.0
20260508075529 36 0 0.0 2.6 0.00 0.01 0.00 87 1012.0
20260508075029 36 360 0.9 2.6 0.00 0.01 0.00 88 1012.1
20260508074545 37 275 0.9 3.5 0.00 0.01 0.00 88 1011.9
20260508074029 37 274 0.9 3.5 0.00 0.01 0.00 88 1012.0
20260508073529 37 360 0.9 2.6 0.00 0.01 0.00 87 1012.0
20260508073048 37 0 0.0 2.6 0.00 0.01 0.00 87 1012.1
20260508072529 37 0 0.0 3.5 0.00 0.01 0.00 87 1012.0
20260508072029 37 360 0.0 3.5 0.00 0.01 0.00 87 1012.0
20260508071548 37 0 1.7 3.5 0.00 0.01 0.00 87 1012.1
20260508071029 37 0 0.9 5.2 0.00 0.01 0.00 87 1012.1
20260508070529 37 360 2.6 5.2 0.00 0.01 0.00 88 1012.3
20260508070047 37 261 2.6 5.2 0.00 0.01 0.00 87 1012.3
20260508065531 38 360 0.9 2.6 0.00 0.01 0.00 87 1012.3
20260508065031 38 0 0.0 2.6 0.00 0.01 0.00 87 1012.4